Location: Bli��� Lhota
(48.7570°N, 14.0120°E)
Time: 23:23:24
(UTC+00:00)

Meteor 2-19 Rocket - Pass Details

Date: 18 September 2020
Orbit: 935 x 959 km, 82.5° (Epoch: 31 October)

Event Time Altitude Azimuth Distance (km) Brightness Sun altitude
Rises 19:57:01 0° 351° (N) 3,641 8.2 -26.5°
Reaches altitude 10° 19:59:33 10° 354° (N) 2,688 7.3 -26.8°
Maximum altitude 20:05:41 69° 78° (ENE) 1,010 4.3 -27.6°
Enters shadow 20:05:41 69° 78° (ENE) 1,010 4.3 -27.6°
